Regional Weather Roundup
Issued by NWS

Home | Current Version | Previous Version | Graphics & Text | Print | Product List | Glossary On
Versions: 1 2 3 4 5 6 7 8 9 10 11 12 13 14 15 16 17 18 19 20 21 22 23 24 25 26 27 28 29 30 31 32 33 34 35 36 37 38 39 40 41 42 43 44 45 46 47 48 49 50
000
ASUS43 KMPX 290010
RWRMN
WEATHER ROUNDUP FOR MINNESOTA
NATIONAL WEATHER SERVICE TWIN CITIES/CHANHASSEN MN
700 PM CDT TUE MAR 28 2017


NOTE: "FAIR" INDICATES FEW OR NO CLOUDS BELOW 12,000 FEET WITH NO
SIGNIFICANT WEATHER AND/OR OBSTRUCTIONS TO VISIBILITY. N/A MEANS
CURRENT SKY AND/OR WEATHER CONDITIONS ARE NOT AVAILABLE.

MNZ060>063-068>070-290100-
   Twin Cities Metro

CITY           SKY/WX    TMP DP  RH WIND       PRES   REMARKS
TWIN CITIES    PTCLDY    61  28  28 E6        30.13R
6HR MIN TEMP:  58; 6HR MAX TEMP:  64;

ST PAUL        CLEAR     60  31  33 E7        30.14R
CRYSTAL        CLEAR     61  22  22 E3        30.12R
BLAINE         PTCLDY    61  25  25 E5        30.14R
LAKEVILLE      CLEAR     55  37  50 CALM      30.13S
EDEN PRAIRIE   CLEAR     61  28  28 SE7       30.12R
6HR MIN TEMP:  60; 6HR MAX TEMP:  64;

SOUTH ST PAUL  CLEAR     61  30  31 E6        30.13R
LAKE ELMO      FAIR      59  32  36 E3        30.15R
$$
MNZ001>005-007-008-013>017-022>024-027-028-290100-
   Northwest Minnesota

CITY           SKY/WX    TMP DP  RH WIND       PRES   REMARKS
BEMIDJI        CLEAR     53  30  41 N7        30.16R
HALLOCK        CLOUDY    45  39  81 N7        30.20R
ROSEAU         CLEAR     46  36  66 E6        30.21R
WARROAD        CLEAR     41  30  65 NE9       30.21S
THIEF RVR FALL PTCLDY    51  36  56 N7        30.19R
CROOKSTON      PTCLDY    54  41  62 CALM      30.18S
FOSSTON        CLEAR     54  43  66 N5        30.17R
DETROIT LAKES  PTCLDY    54  37  54 N6        30.17R
MOORHEAD       CLOUDY    54  45  71 N3        30.17R
PARK RAPIDS    CLEAR     59  28  30 E7        30.15R
MAHNOMEN       FAIR      52  39  59 N7        30.16R
$$
MNZ006-009>011-018-025>026-290100-
   North Central Minnesota

CITY           SKY/WX    TMP DP  RH WIND       PRES   REMARKS
BAUDETTE       CLEAR     46  28  49 N8        30.19S
FLAG ISLAND    CLOUDY    45  21  39 NE6       30.22R
INTL FALLS     CLEAR     50  26  39 NE6       30.18F
6HR MIN TEMP:  50; 6HR MAX TEMP:  54;

WASKISH        CLEAR     52  34  50 N5        30.18R
BIG FORK       CLEAR     55  25  30 N3        30.16R
LONGVILLE      CLEAR     57  25  28 N3        30.15R
GRAND RAPIDS   CLEAR     55  28  35 CALM      30.17R
CRANE LAKE     CLEAR     52  25  35 CALM      30.20R
ORR            CLEAR     52  21  30 CALM      30.16R
COOK           CLEAR     54  27  35 NE3       30.17R
WALKER         FAIR      53  27  36 CALM      30.16R
$$
MNZ012-019>021-037-290100-
   Northeast Minnesota

CITY           SKY/WX    TMP DP  RH WIND       PRES   REMARKS
DULUTH         PTCLDY    51  31  46 SE9       30.15R
6HR MIN TEMP:  51; 6HR MAX TEMP:  59;

ELY            CLEAR     52  25  35 NE3       30.17R
HIBBING        CLEAR     52  29  41 N6        30.15R
EVELETH        CLEAR     55  19  24 N5        30.16R
DULUTH HARBOR  CLEAR     37  36  93 NE12      30.19R
TWO HARBORS    PTCLDY    45  34  65 CALM      30.16R
SILVER BAY     PTCLDY    41  30  65 E6        30.17R
GRAND MARAIS     N/A     38  30  73 E7        30.23R
G MARAIS ARPRT CLEAR     39  23  52 CALM      30.20R
$$
MNZ029>031-032-039>041-046>048-054>057-064-290100-
   West Central Minnesota

CITY           SKY/WX    TMP DP  RH WIND       PRES   REMARKS
FERGUS FALLS   CLOUDY    55  39  54 N5        30.18R
WHEATON        PTCLDY    57  37  47 N3        30.16S
MORRIS         MOCLDY    59  36  41 CALM      30.13R
ALEXANDRIA     PTCLDY    58  33  39 CALM      30.15R
ELBOW LAKE     FAIR      56  38  50 N5        30.15R
WADENA         CLEAR     57  34  41 CALM      30.14R
GLENWOOD       CLEAR     55  34  44 NE3       30.14S
APPLETON       PTCLDY    57  34  41 SE3       30.13S
BENSON         MOCLDY    61  27  27 S6        30.15R
ORTONVILLE     PTCLDY    55  37  50 SE3       30.14R
MADISON        PTCLDY    59  39  47 NE6       30.14R
WILLMAR        FAIR      57  34  41 NE6       30.15S
$$
MNZ033>034-036-042>043-049>051-058-059-290100-
   Central Minnesota

CITY           SKY/WX    TMP DP  RH WIND       PRES   REMARKS
ST CLOUD       CLEAR     59  28  30 CALM      30.14R
6HR MIN TEMP:  58; 6HR MAX TEMP:  63;

SAUK CENTRE    FAIR      57  33  39 E5        30.14R
PAYNESVILLE    PTCLDY    58  30  34 SE3       30.14R
AITKIN         CLEAR     61  21  21 N3        30.13R
PINE RIVER     CLEAR     55  34  44 N7        30.18R
BRAINERD       CLEAR     59  30  33 CALM      30.14R
STAPLES        PTCLDY    59  28  31 CALM      30.14R
LONG PRAIRIE   FAIR      55  34  44 SE7       30.15R
LITTLE FALLS   CLEAR     59  28  31 CALM      30.15R
LITCHFIELD     PTCLDY    57  34  41 E3        30.14S
BUFFALO        CLEAR     59  27  29 NE3       30.15R
MAPLE LAKE     CLEAR     59  36  42 CALM      30.15R
HUTCHINSON     CLOUDY    58  36  43 NE7       30.15R
$$
MNZ037-044-045-052-053-290100-
   East Central Minnesota

CITY           SKY/WX    TMP DP  RH WIND       PRES   REMARKS
PRINCETON      CLEAR     61  27  27 CALM      30.15R
MORA           CLEAR     57  27  30 CALM      30.17R
CAMBRIDGE      CLEAR     63  36  36 CALM      30.13R
RUSH CITY      PTCLDY    59  27  29 CALM      30.14R
MOOSE LAKE     CLEAR     59  30  33 CALM      30.13R
CLOQUET        PTCLDY    55  25  30 E3        30.15R
MCGREGOR       CLEAR     57  30  35 N3        30.15R
$$
MNZ071>073-080-081-089-090-097-098-290100-
   Southwest Minnesota

CITY           SKY/WX    TMP DP  RH WIND       PRES   REMARKS
MONTEVIDEO     PTCLDY    57  34  41 E7        30.14R
GRANITE FALLS  PTCLDY    60  34  37 E5        30.14R
CANBY          CLOUDY    57  39  50 CALM      30.14R
MARSHALL       PTCLDY    59  35  40 E10       30.13R
REDWOOD FALLS  CLEAR     60  31  33 NE6       30.12R
OLIVIA         CLEAR     59  32  36 E3        30.13R
PIPESTONE      PTCLDY    55  32  41 SE9       30.12R
WINDOM         CLOUDY    55  36  47 E8        30.13R
WORTHINGTON    PTCLDY    54  38  54 E12       30.12R
JACKSON        PTCLDY    54  37  54 E9        30.12S
TRACY          PTCLDY    57  38  48 SE6       30.13R
SLAYTON        CLOUDY    54  37  51 E9        30.13R
$$
MNZ065>067-074>077-082>085-091>093-290100-
   South Central Minnesota

CITY           SKY/WX    TMP DP  RH WIND       PRES   REMARKS
MANKATO        CLEAR     57  34  41 E8        30.13R
NEW ULM        PTCLDY    61  30  31 E6        30.13R
ST JAMES       CLEAR     57  36  44 CALM      30.14R
FAIRMONT       CLEAR     55  39  54 E9        30.13R
GLENCOE        CLEAR     60  34  38 CALM      30.13R
FARIBAULT      CLEAR     57  37  47 E7        30.13S
OWATONNA       CLEAR     57  34  41 E7        30.14R
WASECA         CLEAR     55  37  50 NE6       30.14R
ALBERT LEA     CLEAR     55  36  47 E9        30.13R
$$
MNZ078>079-086>088-094>096-290100-
   Southeast Minnesota

CITY           SKY/WX    TMP DP  RH WIND       PRES   REMARKS
ROCHESTER      CLEAR     53  37  54 E7        30.14R
6HR MIN TEMP:  52; 6HR MAX TEMP:  58;

RED WING       CLEAR     57  27  30 E5        30.13R
STANTON        CLEAR     59  38  45 E6        30.12S
DODGE CENTER   CLEAR     55  39  54 NE8       30.14R
WINONA         CLEAR     57  37  47 CALM      30.14S
AUSTIN         CLEAR     55  37  50 E8        30.13R
PRESTON        CLEAR     55  34  44 E7        30.14S
$$
ABBREVIATIONS USED IN REMARKS
   TC - TEMPERATURES IN CELSIUS
  WCI - WIND CHILL INDEX
   HX - HEAT INDEX
  VSB - VISIBILITY
$$




USA.gov is the U.S. government's official web portal to all federal, state and local government web resources and services.